Year,Month,Day,Hour,Minute,Value (Times are PST for temperature in C)
2014,07,10,00,00,17.30
2014,07,10,00,01,17.20
2014,07,10,00,02,17.20
2014,07,10,00,03,17.20
2014,07,10,00,04,17.10
2014,07,10,00,05,17.10
2014,07,10,00,06,17.10
2014,07,10,00,07,17.00
2014,07,10,00,08,17.00
2014,07,10,00,09,16.90
2014,07,10,00,10,16.90
2014,07,10,00,11,16.80
2014,07,10,00,12,16.80
2014,07,10,00,13,16.70
2014,07,10,00,14,16.70
2014,07,10,00,15,16.70
2014,07,10,00,16,16.70
2014,07,10,00,17,16.60
2014,07,10,00,18,16.60
2014,07,10,00,19,16.50
2014,07,10,00,20,16.50
2014,07,10,00,21,16.50
2014,07,10,00,22,16.60
2014,07,10,00,23,16.60
2014,07,10,00,24,16.60
2014,07,10,00,25,16.60
2014,07,10,00,26,16.60
2014,07,10,00,27,16.60
2014,07,10,00,28,16.60
2014,07,10,00,29,16.60
2014,07,10,00,30,16.60
2014,07,10,00,31,16.60
2014,07,10,00,32,16.70
2014,07,10,00,33,16.70
2014,07,10,00,34,16.70
2014,07,10,00,35,16.70
2014,07,10,00,36,16.70
2014,07,10,00,37,16.70
2014,07,10,00,38,16.80
2014,07,10,00,39,16.80
2014,07,10,00,40,16.80
2014,07,10,00,41,16.80
2014,07,10,00,42,16.80
2014,07,10,00,43,16.80
2014,07,10,00,44,16.80
2014,07,10,00,45,16.80
2014,07,10,00,46,16.80
2014,07,10,00,47,16.80
2014,07,10,00,48,16.80
2014,07,10,00,49,16.80
2014,07,10,00,50,16.80
2014,07,10,00,51,16.80
2014,07,10,00,52,16.90
2014,07,10,00,53,16.90
2014,07,10,00,54,16.90
2014,07,10,00,55,16.90
2014,07,10,00,56,16.80
2014,07,10,00,57,16.80
2014,07,10,00,58,16.80
2014,07,10,00,59,16.80
2014,07,10,01,00,16.80
2014,07,10,01,01,16.80
2014,07,10,01,02,16.80
2014,07,10,01,03,16.80
2014,07,10,01,04,16.80
2014,07,10,01,05,16.80
2014,07,10,01,06,16.80
2014,07,10,01,07,16.80
2014,07,10,01,08,16.80
2014,07,10,01,09,16.80
2014,07,10,01,10,16.70
2014,07,10,01,11,16.70
2014,07,10,01,12,16.60
2014,07,10,01,13,16.60
2014,07,10,01,14,16.60
2014,07,10,01,15,16.60
2014,07,10,01,16,16.50
2014,07,10,01,17,16.50
2014,07,10,01,18,16.40
2014,07,10,01,19,16.30
2014,07,10,01,20,16.30
2014,07,10,01,21,16.20
2014,07,10,01,22,16.20
2014,07,10,01,23,16.10
2014,07,10,01,24,16.00
2014,07,10,01,25,15.90
2014,07,10,01,26,15.80
2014,07,10,01,27,15.60
2014,07,10,01,28,15.50
2014,07,10,01,29,15.40
2014,07,10,01,30,15.30
2014,07,10,01,31,15.20
2014,07,10,01,32,15.00
2014,07,10,01,33,15.00
2014,07,10,01,34,14.90
2014,07,10,01,35,14.80
2014,07,10,01,36,14.70
2014,07,10,01,37,14.70
2014,07,10,01,38,14.60
2014,07,10,01,39,14.50
2014,07,10,01,40,14.40
2014,07,10,01,41,14.30
2014,07,10,01,42,14.30
2014,07,10,01,43,14.20
2014,07,10,01,44,14.10
2014,07,10,01,45,14.00
2014,07,10,01,46,14.00
2014,07,10,01,47,13.90
2014,07,10,01,48,13.90
2014,07,10,01,49,13.80
2014,07,10,01,50,13.70
2014,07,10,01,51,13.70
2014,07,10,01,52,13.60
2014,07,10,01,53,13.60
2014,07,10,01,54,13.50
2014,07,10,01,55,13.50
2014,07,10,01,56,13.40
2014,07,10,01,57,13.40
2014,07,10,01,58,13.30
2014,07,10,01,59,13.30
2014,07,10,02,00,13.30
2014,07,10,02,01,13.20
2014,07,10,02,02,13.20
2014,07,10,02,03,13.10
2014,07,10,02,04,13.10
2014,07,10,02,05,13.10
2014,07,10,02,06,13.10
2014,07,10,02,07,13.10
2014,07,10,02,08,13.00
2014,07,10,02,09,13.00
2014,07,10,02,10,13.00
2014,07,10,02,11,13.00
2014,07,10,02,12,12.90
2014,07,10,02,13,12.90
2014,07,10,02,14,12.90
2014,07,10,02,15,12.90
2014,07,10,02,16,12.90
2014,07,10,02,17,12.90
2014,07,10,02,18,12.80
2014,07,10,02,19,12.80
2014,07,10,02,20,12.80
2014,07,10,02,21,12.80
2014,07,10,02,22,12.80
2014,07,10,02,23,12.80
2014,07,10,02,24,12.80
2014,07,10,02,25,12.70
2014,07,10,02,26,12.70
2014,07,10,02,27,12.70
2014,07,10,02,28,12.70
2014,07,10,02,29,12.70
2014,07,10,02,30,12.70
2014,07,10,02,31,12.60
2014,07,10,02,32,12.60
2014,07,10,02,33,12.60
2014,07,10,02,34,12.60
2014,07,10,02,35,12.70
2014,07,10,02,36,12.70
2014,07,10,02,37,12.70
2014,07,10,02,38,12.70
2014,07,10,02,39,12.60
2014,07,10,02,40,12.60
2014,07,10,02,41,12.60
2014,07,10,02,42,12.60
2014,07,10,02,43,12.50
2014,07,10,02,44,12.50
2014,07,10,02,45,12.50
2014,07,10,02,46,12.40
2014,07,10,02,47,12.40
2014,07,10,02,48,12.40
2014,07,10,02,49,12.30
2014,07,10,02,50,12.30
2014,07,10,02,51,12.30
2014,07,10,02,52,12.30
2014,07,10,02,53,12.20
2014,07,10,02,54,12.20
2014,07,10,02,55,12.20
2014,07,10,02,56,12.20
2014,07,10,02,57,12.20
2014,07,10,02,58,12.20
2014,07,10,02,59,12.20
2014,07,10,03,00,12.20
2014,07,10,03,01,12.20
2014,07,10,03,02,12.10
2014,07,10,03,03,12.10
2014,07,10,03,04,12.10
2014,07,10,03,05,12.10
2014,07,10,03,06,12.10
2014,07,10,03,07,12.10
2014,07,10,03,08,12.10
2014,07,10,03,09,12.10
2014,07,10,03,10,12.10
2014,07,10,03,11,12.10
2014,07,10,03,12,12.10
2014,07,10,03,13,12.10
2014,07,10,03,14,12.10
2014,07,10,03,15,12.20
2014,07,10,03,16,12.20
2014,07,10,03,17,12.20
2014,07,10,03,18,12.20
2014,07,10,03,19,12.20
2014,07,10,03,20,12.30
2014,07,10,03,21,12.30
2014,07,10,03,22,12.30
2014,07,10,03,23,12.30
2014,07,10,03,24,12.30
2014,07,10,03,25,12.40
2014,07,10,03,26,12.40
2014,07,10,03,27,12.40
2014,07,10,03,28,12.40
2014,07,10,03,29,12.40
2014,07,10,03,30,12.40
2014,07,10,03,31,12.30
2014,07,10,03,32,12.30
2014,07,10,03,33,12.20
2014,07,10,03,34,12.20
2014,07,10,03,35,12.10
2014,07,10,03,36,12.10
2014,07,10,03,37,12.10
2014,07,10,03,38,12.10
2014,07,10,03,39,12.10
2014,07,10,03,40,12.10
2014,07,10,03,41,12.10
2014,07,10,03,42,12.10
2014,07,10,03,43,12.00
2014,07,10,03,44,12.00
2014,07,10,03,45,11.90
2014,07,10,03,46,11.80
2014,07,10,03,47,11.80
2014,07,10,03,48,11.80
2014,07,10,03,49,11.80
2014,07,10,03,50,11.80
2014,07,10,03,51,11.80
2014,07,10,03,52,11.70
2014,07,10,03,53,11.70
2014,07,10,03,54,11.70
2014,07,10,03,55,11.70
2014,07,10,03,56,11.70
2014,07,10,03,57,11.70
2014,07,10,03,58,11.70
2014,07,10,03,59,11.70
2014,07,10,04,00,11.60
2014,07,10,04,01,11.60
2014,07,10,04,02,11.60
2014,07,10,04,03,11.60
2014,07,10,04,04,11.60
2014,07,10,04,05,11.60
2014,07,10,04,06,11.60
2014,07,10,04,07,11.60
2014,07,10,04,08,11.50
2014,07,10,04,09,11.50
2014,07,10,04,10,11.60
2014,07,10,04,11,11.60
2014,07,10,04,12,11.60
2014,07,10,04,13,11.60
2014,07,10,04,14,11.60
2014,07,10,04,15,11.60
2014,07,10,04,16,11.60
2014,07,10,04,17,11.60
2014,07,10,04,18,11.60
2014,07,10,04,19,11.60
2014,07,10,04,20,11.60
2014,07,10,04,21,11.60
2014,07,10,04,22,11.60
2014,07,10,04,23,11.50
2014,07,10,04,24,11.50
2014,07,10,04,25,11.60
2014,07,10,04,26,11.50
2014,07,10,04,27,11.50
2014,07,10,04,28,11.40
2014,07,10,04,29,11.40
2014,07,10,04,30,11.40
2014,07,10,04,31,11.40
2014,07,10,04,32,11.40
2014,07,10,04,33,11.40
2014,07,10,04,34,11.40
2014,07,10,04,35,11.40
2014,07,10,04,36,11.40
2014,07,10,04,37,11.40
2014,07,10,04,38,11.40
2014,07,10,04,39,11.40
2014,07,10,04,40,11.30
2014,07,10,04,41,11.30
2014,07,10,04,42,11.30
2014,07,10,04,43,11.30
2014,07,10,04,44,11.30
2014,07,10,04,45,11.30
2014,07,10,04,46,11.30
2014,07,10,04,47,11.30
2014,07,10,04,48,11.30
2014,07,10,04,49,11.20
2014,07,10,04,50,11.20
2014,07,10,04,51,11.20
2014,07,10,04,52,11.20
2014,07,10,04,53,11.20
2014,07,10,04,54,11.20
2014,07,10,04,55,11.20
2014,07,10,04,56,11.20
2014,07,10,04,57,11.20
2014,07,10,04,58,11.20
2014,07,10,04,59,11.20
2014,07,10,05,00,11.20
2014,07,10,05,01,11.10
2014,07,10,05,02,11.10
2014,07,10,05,03,11.10
2014,07,10,05,04,11.10
2014,07,10,05,05,11.10
2014,07,10,05,06,11.10
2014,07,10,05,07,11.10
2014,07,10,05,08,11.10
2014,07,10,05,09,11.10
2014,07,10,05,10,11.10
2014,07,10,05,11,11.10
2014,07,10,05,12,11.10
2014,07,10,05,13,11.00
2014,07,10,05,14,11.00
2014,07,10,05,15,11.00
2014,07,10,05,16,11.00
2014,07,10,05,17,11.00
2014,07,10,05,18,11.00
2014,07,10,05,19,10.90
2014,07,10,05,20,10.90
2014,07,10,05,21,10.90
2014,07,10,05,22,10.90
2014,07,10,05,23,10.90
2014,07,10,05,24,10.90
2014,07,10,05,25,10.90
2014,07,10,05,26,10.90
2014,07,10,05,27,10.90
2014,07,10,05,28,10.90
2014,07,10,05,29,10.90
2014,07,10,05,30,10.90
2014,07,10,05,31,10.90
2014,07,10,05,32,10.90
2014,07,10,05,33,10.90
2014,07,10,05,34,10.90
2014,07,10,05,35,10.90
2014,07,10,05,36,10.90
2014,07,10,05,37,10.90
2014,07,10,05,38,10.90
2014,07,10,05,39,10.90
2014,07,10,05,40,10.90
2014,07,10,05,41,10.90
2014,07,10,05,42,10.90
2014,07,10,05,43,10.90
2014,07,10,05,44,11.00
2014,07,10,05,45,11.00
2014,07,10,05,46,11.00
2014,07,10,05,47,11.10
2014,07,10,05,48,11.10
2014,07,10,05,49,11.10
2014,07,10,05,50,11.10
2014,07,10,05,51,11.10
2014,07,10,05,52,11.10
2014,07,10,05,53,11.10
2014,07,10,05,54,11.10
2014,07,10,05,55,11.10
2014,07,10,05,56,11.10
2014,07,10,05,57,11.10
2014,07,10,05,58,11.10
2014,07,10,05,59,11.10
2014,07,10,06,00,11.20
2014,07,10,06,01,11.20
2014,07,10,06,02,11.20
2014,07,10,06,03,11.20
2014,07,10,06,04,11.20
2014,07,10,06,05,11.20
2014,07,10,06,06,11.20
2014,07,10,06,07,11.20
2014,07,10,06,08,11.20
2014,07,10,06,09,11.20
2014,07,10,06,10,11.20
2014,07,10,06,11,11.20
2014,07,10,06,12,11.30
2014,07,10,06,13,11.30
2014,07,10,06,14,11.40
2014,07,10,06,15,11.40
2014,07,10,06,16,11.40
2014,07,10,06,17,11.40
2014,07,10,06,18,11.40
2014,07,10,06,19,11.40
2014,07,10,06,20,11.30
2014,07,10,06,21,11.30
2014,07,10,06,22,11.30
2014,07,10,06,23,11.30
2014,07,10,06,24,11.40
2014,07,10,06,25,11.40
2014,07,10,06,26,11.50
2014,07,10,06,27,11.50
2014,07,10,06,28,11.60
2014,07,10,06,29,11.50
2014,07,10,06,30,11.50
2014,07,10,06,31,11.50
2014,07,10,06,32,11.50
2014,07,10,06,33,11.60
2014,07,10,06,34,11.60
2014,07,10,06,35,11.60
2014,07,10,06,36,11.70
2014,07,10,06,37,11.80
2014,07,10,06,38,11.80
2014,07,10,06,39,11.90
2014,07,10,06,40,11.90
2014,07,10,06,41,12.00
2014,07,10,06,42,12.10
2014,07,10,06,43,12.10
2014,07,10,06,44,12.10
2014,07,10,06,45,12.10
2014,07,10,06,46,12.20
2014,07,10,06,47,12.20
2014,07,10,06,48,12.10
2014,07,10,06,49,12.20
2014,07,10,06,50,12.20
2014,07,10,06,51,12.20
2014,07,10,06,52,12.30
2014,07,10,06,53,12.40
2014,07,10,06,54,12.40
2014,07,10,06,55,12.60
2014,07,10,06,56,12.70
2014,07,10,06,57,12.80
2014,07,10,06,58,12.90
2014,07,10,06,59,13.00
2014,07,10,07,00,13.20
2014,07,10,07,01,13.30
2014,07,10,07,02,13.50
2014,07,10,07,03,13.60
2014,07,10,07,04,13.70
2014,07,10,07,05,13.80
2014,07,10,07,06,13.80
2014,07,10,07,07,13.90
2014,07,10,07,08,14.00
2014,07,10,07,09,14.10
2014,07,10,07,10,14.20
2014,07,10,07,11,14.30
2014,07,10,07,12,14.40
2014,07,10,07,13,14.50
2014,07,10,07,14,14.60
2014,07,10,07,15,14.70
2014,07,10,07,16,14.80
2014,07,10,07,17,14.90
2014,07,10,07,18,15.10
2014,07,10,07,19,15.20
2014,07,10,07,20,15.30
2014,07,10,07,21,15.30
2014,07,10,07,22,15.40
2014,07,10,07,23,15.40
2014,07,10,07,24,15.50
2014,07,10,07,25,15.50
2014,07,10,07,26,15.60
2014,07,10,07,27,15.60
2014,07,10,07,28,15.70
2014,07,10,07,29,15.70
2014,07,10,07,30,15.70
2014,07,10,07,31,15.80
2014,07,10,07,32,15.80
2014,07,10,07,33,15.90
2014,07,10,07,34,15.90
2014,07,10,07,35,15.90
2014,07,10,07,36,16.00
2014,07,10,07,37,16.00
2014,07,10,07,38,16.10
2014,07,10,07,39,16.10
2014,07,10,07,40,16.10
2014,07,10,07,41,16.10
2014,07,10,07,42,16.20
2014,07,10,07,43,16.20
2014,07,10,07,44,16.30
2014,07,10,07,45,16.30
2014,07,10,07,46,16.30
2014,07,10,07,47,16.40
2014,07,10,07,48,16.40
2014,07,10,07,49,16.40
2014,07,10,07,50,16.40
2014,07,10,07,51,16.40
2014,07,10,07,52,16.40
2014,07,10,07,53,16.40
2014,07,10,07,54,16.50
2014,07,10,07,55,16.50
2014,07,10,07,56,16.60
2014,07,10,07,57,16.60
2014,07,10,07,58,16.60
2014,07,10,07,59,16.60
2014,07,10,08,00,16.60
2014,07,10,08,01,16.60
2014,07,10,08,02,16.60
2014,07,10,08,03,16.60
2014,07,10,08,04,16.50
2014,07,10,08,05,16.50
2014,07,10,08,06,16.40
2014,07,10,08,07,16.40
2014,07,10,08,08,16.40
2014,07,10,08,09,16.40
2014,07,10,08,10,16.40
2014,07,10,08,11,16.40
2014,07,10,08,12,16.40
2014,07,10,08,13,16.40
2014,07,10,08,14,16.50
2014,07,10,08,15,16.50
2014,07,10,08,16,16.60
2014,07,10,08,17,16.60
2014,07,10,08,18,16.60
2014,07,10,08,19,16.60
2014,07,10,08,20,16.60
2014,07,10,08,21,16.60
2014,07,10,08,22,16.60
2014,07,10,08,23,16.60
2014,07,10,08,24,16.60
2014,07,10,08,25,16.60
2014,07,10,08,26,16.60
2014,07,10,08,27,16.70
2014,07,10,08,28,16.70
2014,07,10,08,29,16.80
2014,07,10,08,30,16.80
2014,07,10,08,31,16.80
2014,07,10,08,32,16.80
2014,07,10,08,33,16.80
2014,07,10,08,34,16.80
2014,07,10,08,35,16.80
2014,07,10,08,36,16.80
2014,07,10,08,37,16.80
2014,07,10,08,38,16.90
2014,07,10,08,39,16.90
2014,07,10,08,40,16.90
2014,07,10,08,41,16.90
2014,07,10,08,42,16.90
2014,07,10,08,43,16.90
2014,07,10,08,44,17.00
2014,07,10,08,45,17.00
2014,07,10,08,46,17.00
2014,07,10,08,47,17.00
2014,07,10,08,48,17.10
2014,07,10,08,49,17.10
2014,07,10,08,50,17.10
2014,07,10,08,51,17.20
2014,07,10,08,52,17.20
2014,07,10,08,53,17.30
2014,07,10,08,54,17.30
2014,07,10,08,55,17.20
2014,07,10,08,56,17.20
2014,07,10,08,57,17.20
2014,07,10,08,58,17.30
2014,07,10,08,59,17.30
2014,07,10,09,00,17.30
2014,07,10,09,01,17.30
2014,07,10,09,02,17.30
2014,07,10,09,03,17.40
2014,07,10,09,04,17.40
2014,07,10,09,05,17.40
2014,07,10,09,06,17.40
2014,07,10,09,07,17.40
2014,07,10,09,08,17.50
2014,07,10,09,09,17.50
2014,07,10,09,10,17.50
2014,07,10,09,11,17.40
2014,07,10,09,12,17.30
2014,07,10,09,13,17.30
2014,07,10,09,14,17.20
2014,07,10,09,15,17.30
2014,07,10,09,16,17.30
2014,07,10,09,17,17.20
2014,07,10,09,18,17.20
2014,07,10,09,19,17.20
2014,07,10,09,20,17.30
2014,07,10,09,21,17.30
2014,07,10,09,22,17.30
2014,07,10,09,23,17.40
2014,07,10,09,24,17.40
2014,07,10,09,25,17.40
2014,07,10,09,26,17.40
2014,07,10,09,27,17.40
2014,07,10,09,28,17.30
2014,07,10,09,29,17.20
2014,07,10,09,30,17.20
2014,07,10,09,31,17.20
2014,07,10,09,32,17.20
2014,07,10,09,33,17.30
2014,07,10,09,34,17.30
2014,07,10,09,35,17.40
2014,07,10,09,36,17.40
2014,07,10,09,37,17.40
2014,07,10,09,38,17.40
2014,07,10,09,39,17.40
2014,07,10,09,40,17.40
2014,07,10,09,41,17.30
2014,07,10,09,42,17.30
2014,07,10,09,43,17.40
2014,07,10,09,44,17.50
2014,07,10,09,45,17.60
2014,07,10,09,46,17.60
2014,07,10,09,47,17.70
2014,07,10,09,48,17.80
2014,07,10,09,49,17.90
2014,07,10,09,50,17.90
2014,07,10,09,51,18.00
2014,07,10,09,52,18.00
2014,07,10,09,53,18.00
2014,07,10,09,54,18.00
2014,07,10,09,55,18.10
2014,07,10,09,56,18.10
2014,07,10,09,57,18.10
2014,07,10,09,58,18.00
2014,07,10,09,59,18.00
2014,07,10,10,00,17.90
2014,07,10,10,01,17.90
2014,07,10,10,02,17.90
2014,07,10,10,03,17.80
2014,07,10,10,04,17.80
2014,07,10,10,05,17.70
2014,07,10,10,06,17.60
2014,07,10,10,07,17.60
2014,07,10,10,08,17.60
2014,07,10,10,09,17.50
2014,07,10,10,10,17.50
2014,07,10,10,11,17.40
2014,07,10,10,12,17.30
2014,07,10,10,13,17.30
2014,07,10,10,14,17.40
2014,07,10,10,15,17.40
2014,07,10,10,16,17.50
2014,07,10,10,17,17.50
2014,07,10,10,18,17.60
2014,07,10,10,19,17.60
2014,07,10,10,20,17.70
2014,07,10,10,21,17.60
2014,07,10,10,22,17.60
2014,07,10,10,23,17.70
2014,07,10,10,24,17.80
2014,07,10,10,25,17.70
2014,07,10,10,26,17.80
2014,07,10,10,27,17.80
2014,07,10,10,28,17.90
2014,07,10,10,29,18.00
2014,07,10,10,30,18.10
2014,07,10,10,31,18.20
2014,07,10,10,32,18.10
2014,07,10,10,33,18.00
2014,07,10,10,34,17.90
2014,07,10,10,35,17.90
2014,07,10,10,36,17.90
2014,07,10,10,37,17.80
2014,07,10,10,38,17.70
2014,07,10,10,39,17.70
2014,07,10,10,40,17.70
2014,07,10,10,41,17.70
2014,07,10,10,42,17.60
2014,07,10,10,43,17.60
2014,07,10,10,44,17.60
2014,07,10,10,45,17.50
2014,07,10,10,46,17.60
2014,07,10,10,47,17.70
2014,07,10,10,48,17.70
2014,07,10,10,49,17.80
2014,07,10,10,50,17.90
2014,07,10,10,51,17.90
2014,07,10,10,52,18.00
2014,07,10,10,53,18.10
2014,07,10,10,54,18.00
2014,07,10,10,55,18.00
2014,07,10,10,56,18.00
2014,07,10,10,57,17.90
2014,07,10,10,58,17.80
2014,07,10,10,59,17.70
2014,07,10,11,00,17.60
2014,07,10,11,01,17.60
2014,07,10,11,02,17.60
2014,07,10,11,03,17.60
2014,07,10,11,04,17.70
2014,07,10,11,05,17.80
2014,07,10,11,06,17.80
2014,07,10,11,07,17.80
2014,07,10,11,08,17.80
2014,07,10,11,09,17.90
2014,07,10,11,10,17.90
2014,07,10,11,11,17.90
2014,07,10,11,12,17.90
2014,07,10,11,13,17.80
2014,07,10,11,14,17.80
2014,07,10,11,15,17.80
2014,07,10,11,16,17.80
2014,07,10,11,17,17.70
2014,07,10,11,18,17.70
2014,07,10,11,19,17.70
2014,07,10,11,20,17.70
2014,07,10,11,21,17.70
2014,07,10,11,22,17.70
2014,07,10,11,23,17.80
2014,07,10,11,24,17.80
2014,07,10,11,25,17.60
2014,07,10,11,26,17.50
2014,07,10,11,27,17.30
2014,07,10,11,28,17.30
2014,07,10,11,29,17.30
2014,07,10,11,30,17.30
2014,07,10,11,31,17.30
2014,07,10,11,32,17.40
2014,07,10,11,33,17.40
2014,07,10,11,34,17.50
2014,07,10,11,35,17.60
2014,07,10,11,36,17.70
2014,07,10,11,37,17.80
2014,07,10,11,38,17.80
2014,07,10,11,39,17.90
2014,07,10,11,40,17.90
2014,07,10,11,41,17.80
2014,07,10,11,42,17.80
2014,07,10,11,43,17.80
2014,07,10,11,44,17.80
2014,07,10,11,45,17.80
2014,07,10,11,46,17.90
2014,07,10,11,47,18.00
2014,07,10,11,48,18.00
2014,07,10,11,49,18.10
2014,07,10,11,50,18.10
2014,07,10,11,51,18.10
2014,07,10,11,52,18.10
2014,07,10,11,53,18.10
2014,07,10,11,54,18.10
2014,07,10,11,55,18.20
2014,07,10,11,56,18.20
2014,07,10,11,57,18.30
2014,07,10,11,58,18.30
2014,07,10,11,59,18.30
2014,07,10,12,00,18.30
2014,07,10,12,01,18.30
2014,07,10,12,02,18.30
2014,07,10,12,03,18.30
2014,07,10,12,04,18.30
2014,07,10,12,05,18.30
2014,07,10,12,06,18.30
2014,07,10,12,07,18.30
2014,07,10,12,08,18.30
2014,07,10,12,09,18.30
2014,07,10,12,10,18.20
2014,07,10,12,11,18.20
2014,07,10,12,12,18.20
2014,07,10,12,13,18.20
2014,07,10,12,14,18.20
2014,07,10,12,15,18.30
2014,07,10,12,16,18.40
2014,07,10,12,17,18.50
2014,07,10,12,18,18.60
2014,07,10,12,19,18.70
2014,07,10,12,20,18.70
2014,07,10,12,21,18.80
2014,07,10,12,22,18.80
2014,07,10,12,23,18.90
2014,07,10,12,24,19.00
2014,07,10,12,25,19.00
2014,07,10,12,26,19.00
2014,07,10,12,27,19.00
2014,07,10,12,28,19.10
2014,07,10,12,29,19.10
2014,07,10,12,30,19.20
2014,07,10,12,31,19.20
2014,07,10,12,32,19.20
2014,07,10,12,33,19.20
2014,07,10,12,34,19.30
2014,07,10,12,35,19.30
2014,07,10,12,36,19.40
2014,07,10,12,37,19.40
2014,07,10,12,38,19.30
2014,07,10,12,39,19.20
2014,07,10,12,40,19.20
2014,07,10,12,41,19.20
2014,07,10,12,42,19.20
2014,07,10,12,43,19.20
2014,07,10,12,44,19.30
2014,07,10,12,45,19.40
2014,07,10,12,46,19.40
2014,07,10,12,47,19.40
2014,07,10,12,48,19.40
2014,07,10,12,49,19.40
2014,07,10,12,50,19.30
2014,07,10,12,51,19.40
2014,07,10,12,52,19.40
2014,07,10,12,53,19.40
2014,07,10,12,54,19.40
2014,07,10,12,55,19.40
2014,07,10,12,56,19.30
2014,07,10,12,57,19.20
2014,07,10,12,58,19.20
2014,07,10,12,59,19.10
2014,07,10,13,00,19.10
2014,07,10,13,01,19.10
2014,07,10,13,02,19.10
2014,07,10,13,03,19.20
2014,07,10,13,04,19.10
2014,07,10,13,05,19.10
2014,07,10,13,06,19.10
2014,07,10,13,07,19.10
2014,07,10,13,08,19.00
2014,07,10,13,09,18.80
2014,07,10,13,10,18.70
2014,07,10,13,11,18.70
2014,07,10,13,12,18.70
2014,07,10,13,13,18.70
2014,07,10,13,14,18.70
2014,07,10,13,15,18.60
2014,07,10,13,16,18.60
2014,07,10,13,17,18.60
2014,07,10,13,18,18.60
2014,07,10,13,19,18.70
2014,07,10,13,20,18.60
2014,07,10,13,21,18.60
2014,07,10,13,22,18.60
2014,07,10,13,23,18.60
2014,07,10,13,24,18.50
2014,07,10,13,25,18.50
2014,07,10,13,26,18.50
2014,07,10,13,27,18.40
2014,07,10,13,28,18.40
2014,07,10,13,29,18.40
2014,07,10,13,30,18.40
2014,07,10,13,31,18.30
2014,07,10,13,32,18.40
2014,07,10,13,33,18.40
2014,07,10,13,34,18.50
2014,07,10,13,35,18.50
2014,07,10,13,36,18.50
2014,07,10,13,37,18.60
2014,07,10,13,38,18.60
2014,07,10,13,39,18.60
2014,07,10,13,40,18.60
2014,07,10,13,41,18.60
2014,07,10,13,42,18.60
2014,07,10,13,43,18.60
2014,07,10,13,44,18.60
2014,07,10,13,45,18.60
2014,07,10,13,46,18.60
2014,07,10,13,47,18.70
2014,07,10,13,48,18.70
2014,07,10,13,49,18.70
2014,07,10,13,50,18.70
2014,07,10,13,51,18.80
2014,07,10,13,52,18.80
2014,07,10,13,53,18.80
2014,07,10,13,54,18.90
2014,07,10,13,55,19.00
2014,07,10,13,56,19.10
2014,07,10,13,57,19.20
2014,07,10,13,58,19.30
2014,07,10,13,59,19.30
2014,07,10,14,00,19.40
2014,07,10,14,01,19.40
2014,07,10,14,02,19.40
2014,07,10,14,03,19.40
2014,07,10,14,04,19.50
2014,07,10,14,05,19.60
2014,07,10,14,06,19.60
2014,07,10,14,07,19.70
2014,07,10,14,08,19.70
2014,07,10,14,09,19.80
2014,07,10,14,10,19.80
2014,07,10,14,11,19.80
2014,07,10,14,12,19.80
2014,07,10,14,13,19.80
2014,07,10,14,14,19.80
2014,07,10,14,15,19.80
2014,07,10,14,16,19.80
2014,07,10,14,17,19.90
2014,07,10,14,18,20.00
2014,07,10,14,19,20.00
2014,07,10,14,20,19.90
2014,07,10,14,21,19.90
2014,07,10,14,22,19.80
2014,07,10,14,23,19.80
2014,07,10,14,24,19.80
2014,07,10,14,25,19.80
2014,07,10,14,26,19.80
2014,07,10,14,27,19.80
2014,07,10,14,28,19.80
2014,07,10,14,29,19.80
2014,07,10,14,30,19.80
2014,07,10,14,31,19.80
2014,07,10,14,32,19.80
2014,07,10,14,33,19.80
2014,07,10,14,34,19.80
2014,07,10,14,35,19.80
2014,07,10,14,36,19.80
2014,07,10,14,37,19.80
2014,07,10,14,38,19.70
2014,07,10,14,39,19.70
2014,07,10,14,40,19.80
2014,07,10,14,41,19.80
2014,07,10,14,42,19.80
2014,07,10,14,43,19.80
2014,07,10,14,44,19.90
2014,07,10,14,45,19.90
2014,07,10,14,46,20.00
2014,07,10,14,47,20.10
2014,07,10,14,48,20.10
2014,07,10,14,49,20.10
2014,07,10,14,50,20.20
2014,07,10,14,51,20.20
2014,07,10,14,52,20.30
2014,07,10,14,53,20.30
2014,07,10,14,54,20.40
2014,07,10,14,55,20.50
2014,07,10,14,56,20.60
2014,07,10,14,57,20.60
2014,07,10,14,58,20.70
2014,07,10,14,59,20.80
2014,07,10,15,00,20.80
2014,07,10,15,01,20.70
2014,07,10,15,02,20.50
2014,07,10,15,03,20.40
2014,07,10,15,04,20.40
2014,07,10,15,05,20.40
2014,07,10,15,06,20.30
2014,07,10,15,07,20.30
2014,07,10,15,08,20.30
2014,07,10,15,09,20.30
2014,07,10,15,10,20.20
2014,07,10,15,11,20.20
2014,07,10,15,12,20.30
2014,07,10,15,13,20.30
2014,07,10,15,14,20.30
2014,07,10,15,15,20.40
2014,07,10,15,16,20.40
2014,07,10,15,17,20.40
2014,07,10,15,18,20.30
2014,07,10,15,19,20.30
2014,07,10,15,20,20.20
2014,07,10,15,21,20.20
2014,07,10,15,22,20.20
2014,07,10,15,23,20.10
2014,07,10,15,24,20.10
2014,07,10,15,25,20.10
2014,07,10,15,26,20.20
2014,07,10,15,27,20.20
2014,07,10,15,28,20.30
2014,07,10,15,29,20.40
2014,07,10,15,30,20.50
2014,07,10,15,31,20.50
2014,07,10,15,32,20.60
2014,07,10,15,33,20.60
2014,07,10,15,34,20.60
2014,07,10,15,35,20.70
2014,07,10,15,36,20.80
2014,07,10,15,37,20.90
2014,07,10,15,38,20.90
2014,07,10,15,39,20.90
2014,07,10,15,40,20.90
2014,07,10,15,41,20.90
2014,07,10,15,42,20.80
2014,07,10,15,43,20.80
2014,07,10,15,44,20.70
2014,07,10,15,45,20.80
2014,07,10,15,46,20.80
2014,07,10,15,47,20.90
2014,07,10,15,48,20.90
2014,07,10,15,49,20.90
2014,07,10,15,50,20.90
2014,07,10,15,51,21.00
2014,07,10,15,52,21.00
2014,07,10,15,53,21.10
2014,07,10,15,54,21.10
2014,07,10,15,55,21.20
2014,07,10,15,56,21.30
2014,07,10,15,57,21.30
2014,07,10,15,58,21.30
2014,07,10,15,59,21.40
2014,07,10,16,00,21.40
2014,07,10,16,01,21.40
2014,07,10,16,02,21.40
2014,07,10,16,03,21.50
2014,07,10,16,04,21.50
2014,07,10,16,05,21.60
2014,07,10,16,06,21.60
2014,07,10,16,07,21.60
2014,07,10,16,08,21.70
2014,07,10,16,09,21.80
2014,07,10,16,10,21.80
2014,07,10,16,11,21.70
2014,07,10,16,12,21.70
2014,07,10,16,13,21.70
2014,07,10,16,14,21.70
2014,07,10,16,15,21.80
2014,07,10,16,16,21.90
2014,07,10,16,17,21.90
2014,07,10,16,18,22.00
2014,07,10,16,19,22.00
2014,07,10,16,20,22.00
2014,07,10,16,21,22.10
2014,07,10,16,22,22.10
2014,07,10,16,23,22.10
2014,07,10,16,24,22.10
2014,07,10,16,25,22.20
2014,07,10,16,26,22.30
2014,07,10,16,27,22.30
2014,07,10,16,28,22.40
2014,07,10,16,29,22.50
2014,07,10,16,30,22.60
2014,07,10,16,31,22.70
2014,07,10,16,32,22.90
2014,07,10,16,33,23.00
2014,07,10,16,34,23.10
2014,07,10,16,35,23.20
2014,07,10,16,36,23.30
2014,07,10,16,37,23.30
2014,07,10,16,38,23.30
2014,07,10,16,39,23.30
2014,07,10,16,40,23.30
2014,07,10,16,41,23.30
2014,07,10,16,42,23.30
2014,07,10,16,43,23.30
2014,07,10,16,44,23.30
2014,07,10,16,45,23.30
2014,07,10,16,46,23.30
2014,07,10,16,47,23.30
2014,07,10,16,48,23.10
2014,07,10,16,49,23.10
2014,07,10,16,50,23.10
2014,07,10,16,51,23.20
2014,07,10,16,52,23.20
2014,07,10,16,53,23.20
2014,07,10,16,54,23.30
2014,07,10,16,55,23.40
2014,07,10,16,56,23.60
2014,07,10,16,57,23.60
2014,07,10,16,58,23.60
2014,07,10,16,59,23.70
2014,07,10,17,00,23.70
2014,07,10,17,01,23.70
2014,07,10,17,02,23.70
2014,07,10,17,03,23.80
2014,07,10,17,04,23.80
2014,07,10,17,05,23.80
2014,07,10,17,06,23.80
2014,07,10,17,07,23.80
2014,07,10,17,08,23.80
2014,07,10,17,09,23.80
2014,07,10,17,10,23.80
2014,07,10,17,11,23.80
2014,07,10,17,12,23.80
2014,07,10,17,13,23.80
2014,07,10,17,14,23.80
2014,07,10,17,15,23.80
2014,07,10,17,16,23.80
2014,07,10,17,17,23.70
2014,07,10,17,18,23.70
2014,07,10,17,19,23.70